Location: Bay Harbour
(38.2612°N, 75.2555°W)
Time: 02:28:16
(UTC+00:00)

Cosmos 2278 - Pass Details

Date: 29 October 2020
Orbit: 841 x 851 km, 71.1° (Epoch: 02 December)

Event Time Altitude Azimuth Distance (km) Brightness Sun altitude
Rises 23:05:34 0° 180° (S) 3,396 6.9 -12.6°
Reaches altitude 10° 23:08:08 10° 173° (S) 2,463 6.1 -13.1°
Maximum altitude 23:13:21 40° 105° (ESE) 1,233 4.1 -14.1°
Enters shadow 23:18:31 10° 38° (NE) 2,442 5.7 -15.1°
